Regional Weather Roundup
Issued by NWS

Home | Current Version | Previous Version | Text Only | Print | Product List | Glossary Off
Versions: 1 2 3 4 5 6 7 8 9 10 11 12 13 14 15 16 17 18 19 20 21 22 23 24 25 26 27 28 29 30 31 32 33 34 35 36 37 38 39 40 41 42 43 44 45 46 47 48 49 50

000
ASUS43 KFSD 190610
RWRSD

WEATHER ROUNDUP FOR SOUTH DAKOTA
NATIONAL WEATHER SERVICE SIOUX FALLS SD
1200 AM CST FRI JAN 19 2018

NOTE: "FAIR" INDICATES FEW OR NO CLOUDS BELOW 12,000 FEET WITH NO
SIGNIFICANT WEATHER AND/OR OBSTRUCTIONS TO VISIBILITY.


SDZ001>005-009-010-012>017-190700-
NORTHWEST AND NORTH CENTRAL SOUTH DAKOTA

CITY           SKY/WX    TMP DP  RH WIND       PRES   REMARKS
BUFFALO          N/A     41  28  60 SW5       29.59F
FAITH            N/A     38  27  64 W8        29.66S
MOBRIDGE       CLOUDY    31  25  78 SE7       29.62F WCI  24
$$

SDZ012>016-024>037-041>051-057-063-072>074-190700-
SOUTHWEST AND SOUTH CENTRAL SOUTH DAKOTA

CITY           SKY/WX    TMP DP  RH WIND       PRES   REMARKS
RAPID CTY ARPT CLOUDY    46  28  49 VRB6      29.68F
PIERRE         CLOUDY    29  25  85 NE6       29.65F WCI  23
CUSTER         CLOUDY    44  23  43 W8        29.77F
ELLSWORTH AFB  CLOUDY    43  26  51 W3        29.66F
PHILIP         CLOUDY    27  26  96 CALM      29.66F
PINE RIDGE     CLOUDY    34  28  79 W5        29.76F WCI  30
SPEARFISH        N/A     52  28  40 VRB6G21   29.68F
WINNER         FAIR      43  31  62 SW14      29.69F
$$

SDZ004>011-016>023-039-040-190700-
NORTHEAST SOUTH DAKOTA

CITY           SKY/WX    TMP DP  RH WIND       PRES   REMARKS
ABERDEEN       MOCLDY    28  25  88 S7        29.67F WCI  21
WATERTOWN      CLOUDY    29  27  92 S7        29.69F WCI  22
BROOKINGS      CLOUDY    30  26  85 SE6       29.73S WCI  24
SISSETON         N/A     48  25  40 SW17G29   29.62F
$$

SDZ017-020-022-023-036>040-048>070-190700-
SOUTHEAST SOUTH DAKOTA

CITY           SKY/WX    TMP DP  RH WIND       PRES   REMARKS
SIOUX FALLS    CLOUDY    32  28  85 S7        29.75F WCI  26
HURON          CLOUDY    31  28  89 S7        29.70F WCI  24
CHAMBERLAIN    MOCLDY    32  31  95 CALM      29.69F
MITCHELL       CLOUDY    31  27  85 SE6       29.73F WCI  25
YANKTON        CLOUDY    31  27  85 SE5       29.76F WCI  26
$$

ABBREVIATIONS USED IN REMARKS
   TC - TEMPERATURE IN CELSIUS
  WCI - WIND CHILL INDEX
   HX - HEAT INDEX
  VSB - VISIBILITY





USA.gov is the U.S. government's official web portal to all federal, state and local government web resources and services.